GW0132 Weather Reports


time (UTC)temp
F
wind
direction
speed
knots
gust
knots
rain 1hr
in
rain 24hr
in
rain mn
in
humidity
%
barometer
mb
20260504214950 75 272 3.5 5.2 0.00 0.00 0.00 34 1001.0
20260504214446 75 208 1.7 2.6 0.00 0.00 0.00 36 1001.2
20260504213943 75 169 2.6 2.6 0.00 0.00 0.00 36 1001.2
20260504213439 75 255 0.9 0.9 0.00 0.00 0.00 36 1001.2
20260504212937 75 265 1.7 2.6 0.00 0.00 0.00 36 1001.3
20260504212432 74 201 4.3 6.1 0.00 0.00 0.00 34 1001.2
20260504211931 74 291 0.9 0.9 0.00 0.00 0.00 37 1001.2
20260504211426 74 255 1.7 2.6 0.00 0.00 0.00 35 1001.2
20260504210924 75 253 1.7 1.7 0.00 0.00 0.00 38 1001.3
20260504210421 75 294 3.5 5.2 0.00 0.00 0.00 38 1001.3
20260504205918 75 267 1.7 2.6 0.00 0.00 0.00 38 1001.5
20260504205416 75 314 2.6 2.6 0.00 0.00 0.00 37 1001.3
20260504204914 75 199 3.5 5.2 0.00 0.00 0.00 35 1001.5
20260504204412 74 225 2.6 4.3 0.00 0.00 0.00 37 1001.7
20260504203911 75 271 2.6 2.6 0.00 0.00 0.00 36 1001.5
20260504203408 75 221 4.3 5.2 0.00 0.00 0.00 36 1001.7
20260504202903 75 311 0.9 1.7 0.00 0.00 0.00 36 1001.6
20260504202400 75 285 1.7 2.6 0.00 0.00 0.00 35 1001.8
20260504201857 75 330 1.7 4.3 0.00 0.00 0.00 37 1002.0
20260504201354 75 260 1.7 1.7 0.00 0.00 0.00 35 1001.8
20260504200852 74 270 1.7 1.7 0.00 0.00 0.00 37 1002.1
20260504200348 75 330 0.9 0.9 0.00 0.00 0.00 39 1002.1
20260504195845 74 303 0.9 1.7 0.00 0.00 0.00 37 1002.2
20260504195340 74 268 1.7 2.6 0.00 0.00 0.00 36 1002.4
20260504194837 75 231 7.8 13.0 0.00 0.00 0.00 36 1002.3
20260504194333 75 62 3.5 5.2 0.00 0.00 0.00 36 1002.4
20260504193829 75 196 1.7 1.7 0.00 0.00 0.00 39 1002.7
20260504193327 74 253 0.9 0.9 0.00 0.00 0.00 39 1002.5
20260504192826 73 337 2.6 2.6 0.00 0.00 0.00 41 1002.5
20260504192323 75 196 2.6 4.3 0.00 0.00 0.00 38 1002.5
20260504191821 73 212 2.6 2.6 0.00 0.00 0.00 39 1002.8
20260504191319 75 257 2.6 4.3 0.00 0.00 0.00 42 1002.7
20260504190814 75 327 4.3 6.1 0.00 0.00 0.00 42 1002.9
20260504190310 75 108 5.2 7.0 0.00 0.00 0.00 38 1002.8
20260504185807 74 215 2.6 4.3 0.00 0.00 0.00 43 1002.8
20260504185305 75 272 3.5 4.3 0.00 0.00 0.00 41 1002.9
20260504184800 74 272 0.9 1.7 0.00 0.00 0.00 44 1003.1
20260504184256 74 346 5.2 8.7 0.00 0.00 0.00 40 1003.1
20260504183752 73 347 2.6 2.6 0.00 0.00 0.00 46 1003.1
20260504183249 74 260 1.7 1.7 0.00 0.00 0.00 43 1003.2
20260504182747 73 8 2.6 5.2 0.00 0.00 0.00 44 1003.2
20260504182244 73 218 0.9 1.7 0.00 0.00 0.00 43 1003.3
20260504181742 73 311 5.2 7.8 0.00 0.00 0.00 43 1003.3
20260504181239 73 258 0.9 1.7 0.00 0.00 0.00 42 1003.2
20260504180738 73 276 4.3 7.0 0.00 0.00 0.00 43 1003.2
20260504180236 73 187 4.3 6.1 0.00 0.00 0.00 43 1003.5
20260504175733 73 259 1.7 1.7 0.00 0.00 0.00 44 1003.5
20260504175230 72 263 0.9 1.7 0.00 0.00 0.00 46 1003.5
20260504174728 71 284 0.9 0.9 0.00 0.00 0.00 48 1003.5
20260504174226 71 278 0.9 1.7 0.00 0.00 0.00 48 1003.4
20260504173721 71 285 0.9 1.7 0.00 0.00 0.00 48 1003.5
20260504173219 72 298 1.7 4.3 0.00 0.00 0.00 47 1003.6
20260504172715 72 297 1.7 2.6 0.00 0.00 0.00 47 1003.5
20260504172212 71 199 6.1 7.8 0.00 0.00 0.00 47 1003.7
20260504171708 71 96 4.3 6.1 0.00 0.00 0.00 46 1003.5
20260504171206 70 184 3.5 5.2 0.00 0.00 0.00 47 1003.6
20260504170702 69 218 3.5 4.3 0.00 0.00 0.00 48 1003.5
20260504170200 69 213 2.6 2.6 0.00 0.00 0.00 49 1003.5
20260504160118 67 188 4.3 6.1 0.00 0.00 0.00 49 1004.2
20260504151045 65 217 4.3 5.2 0.00 0.00 0.00 52 1004.8
20260504150543 65 284 1.7 2.6 0.00 0.00 0.00 50 1004.5
20260504141008 62 216 1.7 1.7 0.00 0.00 0.00 53 1004.5
20260504140505 61 197 6.1 7.0 0.00 0.00 0.00 53 1004.7
20260504130429 58 226 3.5 6.1 0.00 0.00 0.00 55 1005.2
20260504110317 51 225 2.6 4.3 0.00 0.00 0.00 60 1005.4
20260504100234 50 260 0.9 0.9 0.00 0.00 0.00 61 1005.1
20260504081628 50 260 0.0 0.0 0.00 0.00 0.00 61 1005.9
20260504081123 50 260 0.9 0.9 0.00 0.00 0.00 61 1005.8
20260504080620 50 257 0.9 0.9 0.00 0.00 0.00 61 1005.8
20260504080117 50 264 0.9 0.9 0.00 0.00 0.00 61 1005.9
20260504050433 50 261 0.0 0.0 0.00 0.00 0.00 62 1006.9
20260504045930 50 214 0.9 0.9 0.00 0.00 0.00 61 1007.1
20260504045426 51 258 0.0 0.0 0.00 0.00 0.00 61 1006.9
20260504044922 51 248 0.9 0.9 0.00 0.00 0.00 61 1007.0
20260504044420 51 229 0.0 0.9 0.00 0.00 0.00 60 1006.7
20260504043917 51 240 0.0 0.9 0.00 0.00 0.00 60 1006.9
20260504043414 51 227 0.9 0.9 0.00 0.00 0.00 59 1007.0
20260504042912 51 244 0.0 0.9 0.00 0.00 0.00 59 1007.1
20260504042408 52 185 0.9 1.7 0.00 0.00 0.00 59 1007.0
20260504041904 52 268 0.9 0.9 0.00 0.00 0.00 58 1006.9
20260504041400 52 240 2.6 4.3 0.00 0.00 0.00 57 1007.2
20260504040856 53 230 1.7 2.6 0.00 0.00 0.00 57 1006.9
20260504040354 53 219 2.6 2.6 0.00 0.00 0.00 58 1007.1
20260504035850 53 208 2.6 4.3 0.00 0.00 0.00 57 1007.0
20260504035348 53 226 1.7 1.7 0.00 0.00 0.00 57 1007.0
20260504034844 53 258 1.7 2.6 0.00 0.00 0.00 56 1007.0
20260504034342 53 253 3.5 5.2 0.00 0.00 0.00 56 1006.9
20260504033838 54 253 0.9 0.9 0.00 0.00 0.00 56 1007.1
20260504033337 54 256 0.9 0.9 0.00 0.00 0.00 55 1006.7
20260504032833 54 261 0.9 0.9 0.00 0.00 0.00 55 1006.9
20260504032330 54 254 0.9 0.9 0.00 0.00 0.00 55 1007.0
20260504031827 55 259 1.7 1.7 0.00 0.00 0.00 54 1006.9
20260504031324 55 329 1.7 2.6 0.00 0.00 0.00 54 1006.9
20260504030820 54 250 1.7 1.7 0.00 0.00 0.00 54 1007.0
20260504030318 54 261 1.7 1.7 0.00 0.00 0.00 55 1007.1
20260504025814 54 223 2.6 2.6 0.00 0.00 0.00 55 1006.7
20260504025311 54 142 2.6 2.6 0.00 0.00 0.00 54 1006.7
20260504024808 54 258 1.7 2.6 0.00 0.00 0.00 55 1006.6
20260504024304 54 265 0.9 0.9 0.00 0.00 0.00 55 1007.0
20260504023801 54 308 3.5 5.2 0.00 0.00 0.00 55 1007.2
20260504023257 55 160 0.9 0.9 0.00 0.00 0.00 55 1007.2
20260504022753 55 206 5.2 7.0 0.00 0.00 0.00 54 1007.1
20260504022250 55 309 0.0 0.9 0.00 0.00 0.00 54 1007.3
20260504021747 54 218 0.9 1.7 0.00 0.00 0.00 54 1007.3
20260504021244 55 254 0.9 0.9 0.00 0.00 0.00 53 1007.4
20260504020741 55 296 3.5 4.3 0.00 0.00 0.00 53 1007.4
20260504020237 55 226 0.9 0.9 0.00 0.00 0.00 53 1007.3
20260504015733 55 258 0.9 0.9 0.00 0.00 0.00 54 1007.4
20260504015230 53 177 1.7 2.6 0.00 0.00 0.00 55 1007.5
20260504014726 53 260 0.0 0.0 0.00 0.00 0.00 56 1007.3
20260504014223 53 265 0.0 0.9 0.00 0.00 0.00 57 1007.3
20260504013721 53 277 0.0 0.9 0.00 0.00 0.00 59 1007.4
20260504013218 53 242 0.9 0.9 0.00 0.00 0.00 59 1007.3
20260504012714 53 265 0.9 0.9 0.00 0.00 0.00 58 1007.6
20260504012213 54 268 0.9 1.7 0.00 0.00 0.00 58 1007.8
20260504011709 53 261 0.0 0.9 0.00 0.00 0.00 56 1007.8
20260504011206 53 269 0.0 0.9 0.00 0.00 0.00 57 1007.5
20260504010702 53 257 1.7 2.6 0.00 0.00 0.00 58 1007.7
20260504010157 53 238 2.6 4.3 0.00 0.00 0.00 57 1007.6
20260504005654 53 255 0.9 1.7 0.00 0.00 0.00 58 1007.7
20260504005151 53 218 2.6 5.2 0.00 0.00 0.00 58 1007.6
20260504004649 54 266 0.9 1.7 0.00 0.00 0.00 59 1007.5
20260504004146 53 242 4.3 7.0 0.00 0.00 0.00 57 1007.9
20260504003642 53 308 4.3 8.7 0.00 0.00 0.00 58 1007.9
20260504003139 53 307 2.6 2.6 0.00 0.00 0.00 58 1008.3
20260504002636 53 229 1.7 2.6 0.00 0.00 0.00 57 1008.2
20260504002134 54 269 1.7 1.7 0.00 0.00 0.00 57 1008.0
20260504001631 54 269 1.7 2.6 0.00 0.00 0.00 55 1008.0
20260504001127 54 276 2.6 2.6 0.00 0.00 0.00 55 1007.9
20260504000625 54 294 8.7 19.1 0.00 0.00 0.00 54 1007.9
20260504000122 54 274 3.5 5.2 0.00 0.00 0.00 54 1007.8
20260503235620 54 310 2.6 5.2 0.00 0.00 0.00 54 1007.8
20260503235116 54 280 0.9 0.9 0.00 0.00 0.00 54 1007.8
20260503234614 54 352 2.6 4.3 0.00 0.00 0.00 53 1007.8
20260503234112 54 306 1.7 1.7 0.00 0.00 0.00 53 1007.5
20260503233609 54 274 2.6 5.2 0.00 0.00 0.00 55 1007.5
20260503233104 55 187 2.6 2.6 0.00 0.00 0.00 54 1007.8
20260503232602 55 340 2.6 4.3 0.00 0.00 0.00 52 1008.1
20260503232059 55 272 3.5 4.3 0.00 0.00 0.00 52 1007.9
20260503231557 55 309 4.3 7.0 0.00 0.00 0.00 51 1007.7
20260503231053 55 6 1.7 1.7 0.00 0.00 0.00 51 1007.3
20260503230549 56 302 2.6 2.6 0.00 0.00 0.00 52 1007.6
20260503230047 56 278 3.5 5.2 0.00 0.00 0.00 50 1007.7
20260503225544 56 92 6.1 7.8 0.00 0.00 0.00 50 1007.4
20260503225039 56 119 2.6 4.3 0.00 0.00 0.00 49 1007.2
20260503224537 56 258 0.9 1.7 0.00 0.00 0.00 48 1007.2
20260503224035 56 288 4.3 6.1 0.00 0.00 0.00 48 1007.4
20260503223533 57 326 1.7 4.3 0.00 0.00 0.00 46 1007.2
20260503223028 57 289 1.7 1.7 0.00 0.00 0.00 47 1007.1
20260503222526 57 261 1.7 1.7 0.00 0.00 0.00 44 1007.0
20260503222024 57 327 1.7 2.6 0.00 0.00 0.00 46 1007.1
20260503221522 57 118 1.7 1.7 0.00 0.00 0.00 45 1007.3
20260503221019 57 265 3.5 5.2 0.00 0.00 0.00 46 1007.6
20260503220515 57 304 0.9 1.7 0.00 0.00 0.00 47 1007.3
20260503220012 57 318 4.3 5.2 0.00 0.00 0.00 47 1007.2
20260503215509 57 280 0.9 0.9 0.00 0.00 0.00 46 1007.5